EW5226 Weather Reports


Display with metric or nautical units.
time (UTC)temp
F
wind
direction
speed
MPH
gust
MPH
rain 1hr
in
rain 24hr
in
rain mn
in
humidity
%
barometer
mb
20260509141607 83 51 0.0 3.0 0.00 0.00 0.00 79 1014.1
20260509140107 81 70 0.0 4.0 0.00 0.00 0.00 81 1014.0
20260509134554 79 65 0.0 1.0 0.00 0.00 0.00 87 1014.1
20260509133050 74 64 0.0 3.0 0.00 0.00 0.00 93 1014.2
20260509131550 73 78 1.0 3.0 0.00 0.00 0.00 94 1014.3
20260509130050 72 70 1.0 3.0 0.00 0.00 0.00 95 1014.3
20260509124552 72 75 1.0 3.0 0.00 0.00 0.00 94 1014.2
20260509123048 71 95 2.0 4.0 0.00 0.00 0.00 94 1014.3
20260509121550 72 79 1.0 5.0 0.00 0.00 0.00 93 1014.2
20260509120047 75 34 0.0 0.0 0.00 0.00 0.00 95 1014.1
20260509114546 74 33 0.0 0.0 0.00 0.00 0.00 96 1014.0
20260509113044 72 33 0.0 0.0 0.00 0.00 0.00 96 1013.7
20260509111543 70 34 0.0 0.0 0.00 0.00 0.00 96 1013.4
20260509110042 70 33 0.0 0.0 0.00 0.00 0.00 96 1013.1
20260509104542 70 33 0.0 0.0 0.00 0.00 0.00 96 1013.1
20260509103047 70 56 0.0 1.0 0.00 0.00 0.00 96 1012.8
20260509101541 69 56 0.0 1.0 0.00 0.00 0.00 96 1012.6
20260509100039 69 56 0.0 0.0 0.00 0.00 0.00 95 1012.6
20260509094547 69 56 0.0 0.0 0.00 0.00 0.00 95 1012.8
20260509093039 69 56 0.0 0.0 0.00 0.00 0.00 95 1012.9
20260509091546 70 56 0.0 0.0 0.00 0.00 0.00 95 1012.8
20260509090041 70 56 0.0 0.0 0.00 0.00 0.00 95 1012.7
20260509084535 70 56 0.0 0.0 0.00 0.00 0.00 95 1012.7
20260509083033 70 56 0.0 1.0 0.00 0.00 0.00 95 1012.9
20260509081533 70 56 0.0 0.0 0.00 0.00 0.00 95 1012.8
20260509080029 70 56 0.0 0.0 0.00 0.00 0.00 95 1012.9
20260509074528 71 56 0.0 0.0 0.00 0.00 0.00 95 1013.0
20260509073035 71 56 0.0 0.0 0.00 0.00 0.00 95 1013.3
20260509071524 71 56 0.0 0.0 0.00 0.00 0.00 95 1013.4
20260509070023 71 56 0.0 0.0 0.00 0.00 0.00 94 1013.6
20260509064520 71 56 0.0 0.0 0.00 0.00 0.00 94 1013.7
20260509063027 71 56 0.0 0.0 0.00 0.00 0.00 94 1014.0
20260509061517 72 56 0.0 0.0 0.00 0.00 0.00 94 1014.2
20260509060024 72 56 0.0 0.0 0.00 0.00 0.00 94 1014.3
20260509054515 72 56 0.0 0.0 0.00 0.00 0.00 94 1014.4
20260509053013 72 56 0.0 0.0 0.00 0.00 0.00 94 1014.7
20260509051514 72 56 0.0 0.0 0.00 0.00 0.00 94 1014.9
20260509050008 73 56 0.0 0.0 0.00 0.00 0.00 94 1015.0
20260509044507 73 56 0.0 0.0 0.00 0.00 0.00 94 1015.2
20260509043005 73 56 0.0 0.0 0.00 0.00 0.00 93 1015.3
20260509041501 73 56 0.0 0.0 0.00 0.00 0.00 93 1015.2
20260509040108 73 56 0.0 1.0 0.00 0.00 0.00 93 1015.3
20260509034558 74 56 0.0 0.0 0.00 0.00 0.00 92 1015.2
20260509033123 75 56 0.0 1.0 0.00 0.00 0.00 92 1015.4
20260509031556 75 56 0.0 2.0 0.00 0.00 0.00 91 1015.1
20260509030055 75 30 0.0 2.0 0.00 0.00 0.00 91 1015.1
20260509024604 75 72 0.0 2.0 0.00 0.00 0.00 91 1015.0
20260509023054 75 71 0.0 2.0 0.00 0.00 0.00 91 1014.9
20260509021555 76 319 0.0 2.0 0.00 0.00 0.00 90 1014.8
20260509020107 76 50 0.0 2.0 0.00 0.00 0.00 91 1014.7
20260509014553 76 200 0.0 0.0 0.00 0.00 0.00 90 1014.4
20260509013055 76 200 0.0 0.0 0.00 0.00 0.00 89 1014.4
20260509011559 76 297 0.0 1.0 0.00 0.00 0.00 87 1014.3
20260509010051 77 298 0.0 2.0 0.00 0.00 0.00 86 1014.0
20260509004552 78 355 0.0 1.0 0.00 0.00 0.00 84 1013.9
20260509003055 78 8 0.0 2.0 0.00 0.00 0.00 83 1013.6
20260509001549 79 258 0.0 2.0 0.00 0.00 0.00 81 1013.5
20260509000048 80 237 0.0 1.0 0.00 0.00 0.00 78 1013.1
20260508234547 82 236 0.0 1.0 0.00 0.00 0.00 75 1013.0
20260508233048 84 238 0.0 1.0 0.00 0.00 0.00 71 1012.8
20260508231550 86 273 0.0 1.0 0.00 0.00 0.00 67 1012.6
20260508230046 88 203 0.0 3.0 0.00 0.00 0.00 64 1012.5
20260508224553 91 13 0.0 3.0 0.00 0.00 0.00 60 1012.4
20260508223045 92 247 0.0 4.0 0.00 0.00 0.00 54 1012.4
20260508221545 93 240 0.0 3.0 0.00 0.00 0.00 54 1012.1
20260508220047 93 301 0.0 3.0 0.00 0.00 0.00 52 1012.0
20260508214546 93 259 0.0 3.0 0.00 0.00 0.00 53 1012.0
20260508213042 93 287 0.0 3.0 0.00 0.00 0.00 52 1012.0
20260508211542 93 251 0.0 3.0 0.00 0.00 0.00 54 1012.1
20260508210042 93 339 0.0 2.0 0.00 0.00 0.00 54 1012.0
20260508204540 93 298 1.0 3.0 0.00 0.00 0.00 54 1012.0
20260508203041 94 39 0.0 2.0 0.00 0.00 0.00 50 1012.1
20260508201537 93 238 0.0 2.0 0.00 0.00 0.00 52 1012.4
20260508200036 93 302 0.0 6.0 0.00 0.00 0.00 51 1012.6
20260508194533 93 210 0.0 4.0 0.00 0.00 0.00 53 1012.8
20260508193031 93 243 0.0 3.0 0.00 0.00 0.00 50 1012.9
20260508191530 93 304 0.0 5.0 0.00 0.00 0.00 53 1013.0
20260508190024 92 237 1.0 6.0 0.00 0.00 0.00 51 1013.4
20260508184524 92 89 0.0 6.0 0.00 0.00 0.00 56 1013.6
20260508183023 91 268 0.0 5.0 0.00 0.00 0.00 57 1013.9
20260508181530 92 295 1.0 3.0 0.00 0.00 0.00 52 1014.2
20260508180020 91 322 2.0 4.0 0.00 0.00 0.00 54 1014.5
20260508174520 90 2 3.0 7.0 0.00 0.00 0.00 58 1014.4
20260508173019 90 14 2.0 5.0 0.00 0.00 0.00 61 1014.6
20260508171523 91 356 1.0 3.0 0.00 0.00 0.00 56 1014.7
20260508170018 91 261 0.0 3.0 0.00 0.00 0.00 60 1015.0
20260508164514 90 75 2.0 4.0 0.00 0.00 0.00 59 1015.2
20260508163016 90 31 0.0 4.0 0.00 0.00 0.00 61 1015.3
20260508161514 89 335 0.0 4.0 0.00 0.00 0.00 61 1015.6
20260508160007 88 77 1.0 4.0 0.00 0.00 0.00 62 1015.8
20260508154508 88 231 0.0 2.0 0.00 0.00 0.00 63 1016.0
20260508153016 88 323 1.0 4.0 0.00 0.00 0.00 61 1016.0
20260508151503 87 268 0.0 2.0 0.00 0.00 0.00 70 1016.1
20260508150100 85 296 0.0 2.0 0.00 0.00 0.00 75 1016.2
20260508144558 84 321 1.0 5.0 0.00 0.00 0.00 75 1016.2
20260508143117 85 38 2.0 6.0 0.00 0.00 0.00 73 1016.1